When you browse on this site, cookies collect data to enhance your experience and personalize the content and advertising you see.
Visit our Privacy Policy to learn more. By continuing to use the site, you agree to this use of cookies and data.
  • En España
  • Lista de países
  • Para 7 días
  • Temperatura del agua
  • El tiempo en el mapa
  • Informadores
  • user-avatar
    Iniciar sesión

    Tiempo cada hora Santa Fe

    Hoy, 15 Diciembre, Domingo

    Tiempo Temperatura Precipitaciones Viento Presión Humedad
    00:00 +20°C° 6.2 mm 6 mps 754 mmHg 94%
    01:00 +20°C° 6.2 mm 5 mps 754 mmHg 95%
    02:00 +20°C° 6.2 mm 4 mps 753 mmHg 97%
    03:00 +20°C° 13.7 mm 4 mps 753 mmHg 97%
    04:00 +20°C° 13.7 mm 3 mps 753 mmHg 98%
    05:00 +20°C° 13.7 mm 2 mps 753 mmHg 98%
    06:00 +21°C° 1.9 mm 2 mps 754 mmHg 96%
    07:00 +21°C° 1.9 mm 2 mps 754 mmHg 94%
    08:00 +21°C° 1.9 mm 2 mps 755 mmHg 92%
    09:00 +23°C° 0.3 mm 2 mps 755 mmHg 88%
    10:00 +24°C° 0.3 mm 2 mps 755 mmHg 85%
    11:00 +25°C° 0.3 mm 2 mps 755 mmHg 81%
    12:00 +26°C° 0.2 mm 2 mps 755 mmHg 76%
    13:00 +27°C° 0.2 mm 3 mps 754 mmHg 70%
    14:00 +28°C° 0.2 mm 3 mps 754 mmHg 65%
    15:00 +28°C° 0 mm 3 mps 753 mmHg 64%
    16:00 +28°C° 0 mm 2 mps 753 mmHg 62%
    17:00 +29°C° 0 mm 2 mps 753 mmHg 61%
    18:00 +27°C° 0 mm 2 mps 753 mmHg 68%
    19:00 +25°C° 0 mm 1 mps 753 mmHg 75%
    20:00 +23°C° 0 mm 1 mps 753 mmHg 81%
    21:00 +23°C° 0 mm 1 mps 753 mmHg 84%
    22:00 +22°C° 0 mm 1 mps 754 mmHg 86%
    23:00 +22°C° 0 mm 1 mps 754 mmHg 88%

    Mañana, 16 Diciembre, Lunes

    Tiempo Temperatura Precipitaciones Viento Presión Humedad
    00:00 +22°C° 0 mm 1 mps 754 mmHg 90%
    01:00 +20°C° 0 mm 2 mps 754 mmHg 91%
    02:00 +20°C° 0 mm 2 mps 754 mmHg 92%
    03:00 +20°C° 0 mm 2 mps 754 mmHg 93%
    04:00 +20°C° 0 mm 2 mps 754 mmHg 94%
    05:00 +19°C° 0 mm 2 mps 754 mmHg 94%
    06:00 +21°C° 0 mm 2 mps 755 mmHg 88%
    07:00 +24°C° 0 mm 2 mps 755 mmHg 81%
    08:00 +26°C° 0 mm 2 mps 756 mmHg 74%
    09:00 +27°C° 0 mm 2 mps 755 mmHg 68%
    10:00 +28°C° 0 mm 2 mps 755 mmHg 61%
    11:00 +30°C° 0 mm 3 mps 755 mmHg 55%
    12:00 +30°C° 0.3 mm 2 mps 755 mmHg 54%
    13:00 +30°C° 0.3 mm 2 mps 754 mmHg 53%
    14:00 +31°C° 0.3 mm 2 mps 754 mmHg 52%
    15:00 +30°C° 0 mm 3 mps 753 mmHg 54%
    16:00 +30°C° 0 mm 3 mps 753 mmHg 57%
    17:00 +29°C° 0 mm 4 mps 752 mmHg 59%
    18:00 +28°C° 0 mm 4 mps 753 mmHg 63%
    19:00 +26°C° 0 mm 4 mps 753 mmHg 66%
    20:00 +23°C° 0 mm 5 mps 754 mmHg 70%
    21:00 +22°C° 0 mm 4 mps 754 mmHg 68%
    22:00 +21°C° 0 mm 4 mps 755 mmHg 66%
    23:00 +20°C° 0 mm 4 mps 755 mmHg 64%

    Pasado mañana, 17 Diciembre, Martes

    Tiempo Temperatura Precipitaciones Viento Presión Humedad
    00:00 +20°C° 0 mm 3 mps 755 mmHg 69%
    01:00 +19°C° 0 mm 2 mps 755 mmHg 73%
    02:00 +19°C° 0 mm 1 mps 755 mmHg 77%
    03:00 +18°C° 0 mm 1 mps 755 mmHg 79%
    04:00 +18°C° 0 mm 1 mps 755 mmHg 81%
    05:00 +18°C° 0 mm 1 mps 755 mmHg 83%
    06:00 +20°C° 0 mm 1 mps 756 mmHg 78%
    07:00 +21°C° 0 mm 2 mps 756 mmHg 73%
    08:00 +24°C° 0 mm 2 mps 757 mmHg 67%
    09:00 +26°C° 0 mm 2 mps 757 mmHg 60%
    10:00 +28°C° 0 mm 2 mps 757 mmHg 53%
    11:00 +30°C° 0 mm 3 mps 756 mmHg 46%
    12:00 +31°C° 0 mm 3 mps 756 mmHg 42%
    13:00 +33°C° 0 mm 3 mps 756 mmHg 38%
    14:00 +34°C° 0 mm 3 mps 755 mmHg 33%
    15:00 +33°C° 0 mm 3 mps 755 mmHg 36%
    16:00 +32°C° 0 mm 2 mps 754 mmHg 39%
    17:00 +31°C° 0 mm 2 mps 754 mmHg 42%
    18:00 +29°C° 0 mm 2 mps 754 mmHg 47%
    19:00 +27°C° 0 mm 3 mps 755 mmHg 52%
    20:00 +25°C° 0 mm 3 mps 755 mmHg 57%
    21:00 +25°C° 0 mm 3 mps 756 mmHg 61%
    22:00 +24°C° 0 mm 3 mps 756 mmHg 65%
    23:00 +22°C° 0 mm 4 mps 756 mmHg 69%

    18 Diciembre, Miércoles

    Tiempo Temperatura Precipitaciones Viento Presión Humedad
    00:00 +22°C° 0 mm 4 mps 756 mmHg 70%
    01:00 +22°C° 0 mm 4 mps 756 mmHg 70%
    02:00 +21°C° 0 mm 3 mps 756 mmHg 71%
    03:00 +20°C° 0 mm 3 mps 756 mmHg 73%
    04:00 +20°C° 0 mm 3 mps 756 mmHg 74%
    05:00 +19°C° 0 mm 3 mps 757 mmHg 76%
    06:00 +21°C° 0 mm 3 mps 757 mmHg 70%
    07:00 +23°C° 0 mm 4 mps 757 mmHg 64%
    08:00 +26°C° 0 mm 5 mps 758 mmHg 59%
    09:00 +27°C° 0 mm 5 mps 758 mmHg 54%
    10:00 +29°C° 0 mm 5 mps 758 mmHg 49%
    11:00 +32°C° 0 mm 5 mps 757 mmHg 44%
    12:00 +33°C° 0 mm 5 mps 757 mmHg 41%
    13:00 +34°C° 0 mm 4 mps 756 mmHg 38%
    14:00 +34°C° 0 mm 4 mps 755 mmHg 35%
    15:00 +34°C° 0 mm 4 mps 755 mmHg 37%
    16:00 +33°C° 0 mm 4 mps 754 mmHg 39%
    17:00 +33°C° 0 mm 4 mps 754 mmHg 41%
    18:00 +30°C° 0 mm 4 mps 754 mmHg 45%
    19:00 +28°C° 0 mm 4 mps 754 mmHg 49%
    20:00 +26°C° 0 mm 4 mps 754 mmHg 52%
    21:00 +25°C° 0 mm 4 mps 755 mmHg 54%
    22:00 +24°C° 0 mm 3 mps 755 mmHg 56%
    23:00 +22°C° 0 mm 3 mps 755 mmHg 58%

    19 Diciembre, Jueves

    Tiempo Temperatura Precipitaciones Viento Presión Humedad
    00:00 +22°C° 0 mm 3 mps 755 mmHg 60%
    01:00 +21°C° 0 mm 3 mps 754 mmHg 62%
    02:00 +21°C° 0 mm 3 mps 754 mmHg 64%
    03:00 +20°C° 0 mm 3 mps 754 mmHg 67%
    04:00 +20°C° 0 mm 3 mps 754 mmHg 70%
    05:00 +19°C° 0 mm 3 mps 754 mmHg 73%
    06:00 +21°C° 0 mm 3 mps 754 mmHg 69%
    07:00 +25°C° 0 mm 3 mps 755 mmHg 65%
    08:00 +27°C° 0 mm 4 mps 755 mmHg 61%
    09:00 +29°C° 0 mm 4 mps 755 mmHg 54%
    10:00 +33°C° 0 mm 4 mps 754 mmHg 47%
    11:00 +35°C° 0 mm 4 mps 754 mmHg 39%
    12:00 +36°C° 0 mm 3 mps 753 mmHg 36%
    13:00 +37°C° 0 mm 3 mps 753 mmHg 33%
    14:00 +38°C° 0 mm 3 mps 752 mmHg 30%
    15:00 +37°C° 0 mm 3 mps 751 mmHg 32%
    16:00 +37°C° 0 mm 3 mps 751 mmHg 33%
    17:00 +37°C° 0 mm 3 mps 750 mmHg 35%
    18:00 +34°C° 0 mm 3 mps 750 mmHg 39%
    19:00 +31°C° 0 mm 3 mps 751 mmHg 43%
    20:00 +29°C° 0 mm 2 mps 751 mmHg 47%
    21:00 +28°C° 0 mm 3 mps 750 mmHg 49%
    22:00 +28°C° 0 mm 3 mps 750 mmHg 52%
    23:00 +27°C° 0 mm 3 mps 750 mmHg 54%

    20 Diciembre, Viernes

    Tiempo Temperatura Precipitaciones Viento Presión Humedad
    00:00 +27°C° 0 mm 3 mps 750 mmHg 56%
    01:00 +26°C° 0 mm 3 mps 751 mmHg 59%
    02:00 +26°C° 0 mm 4 mps 751 mmHg 61%
    03:00 +25°C° 0 mm 4 mps 751 mmHg 64%
    04:00 +25°C° 0 mm 5 mps 752 mmHg 66%
    05:00 +24°C° 0 mm 6 mps 753 mmHg 69%
    06:00 +24°C° 0 mm 6 mps 754 mmHg 69%
    07:00 +24°C° 0 mm 7 mps 754 mmHg 69%
    08:00 +26°C° 0 mm 7 mps 755 mmHg 70%
    09:00 +27°C° 0.3 mm 7 mps 755 mmHg 66%
    10:00 +28°C° 0.3 mm 6 mps 755 mmHg 62%
    11:00 +29°C° 0.3 mm 6 mps 756 mmHg 59%
    12:00 +29°C° 0.6 mm 6 mps 755 mmHg 59%
    13:00 +29°C° 0.6 mm 5 mps 755 mmHg 59%
    14:00 +29°C° 0.6 mm 5 mps 754 mmHg 60%
    15:00 +29°C° 0.6 mm 4 mps 754 mmHg 61%
    16:00 +28°C° 0.6 mm 4 mps 754 mmHg 63%
    17:00 +28°C° 0.6 mm 3 mps 754 mmHg 64%
    18:00 +26°C° 0.4 mm 3 mps 754 mmHg 71%
    19:00 +25°C° 0.4 mm 2 mps 754 mmHg 78%
    20:00 +23°C° 0.4 mm 1 mps 755 mmHg 84%
    21:00 +23°C° 0.2 mm 1 mps 755 mmHg 86%
    22:00 +22°C° 0.2 mm 1 mps 755 mmHg 88%
    23:00 +22°C° 0.2 mm 1 mps 756 mmHg 89%
    Mostrar más